Location: Long Island Community Building
(39.9491°N, 99.5338°W)
Time: 01:24:59
(UTC+00:00)

Helios 1A Rocket - Pass Details

Date: 06 December 2019
Orbit: 564 x 587 km, 98.3° (Epoch: 28 January)

Event Time Altitude Azimuth Distance (km) Brightness Sun altitude
Rises 23:44:39 0° 179° (S) 2,794 6.8 -6.3°
Reaches altitude 10° 23:46:52 10° 185° (S) 1,896 6.0 -6.7°
Maximum altitude 23:50:50 47° 260° (W) 779 4.2 -7.4°
Drops below altitude 10° 23:54:48 10° 335° (NNW) 1,899 5.6 -8.1°
Sets 23:57:02 0° 341° (NNW) 2,799 6.4 -8.4°
